Terug naar catalogus

CYGFM08

ActiefWeerVLEO
NORAD 41888·PAYLOAD·🇺🇸 United States

Gelanceerd Dec 15, 2016 vanaf Cape Canaveral Space Force Station

Loading…

Volgende Passages (komende 24 uur)

TLE

VersSource: Space-Track

Epoch: Sep 14, 2026, 14:00 UTC

1 41888U 16078E   26257.58343760  .00030515  00000-0  30163-3 0  9999
2 41888  34.9438   4.0804 0005821 319.1031  40.9258 15.64805092542966

Volg CYGFM08 in realtime met AllMySat

Download on the App Store